Temperature
19 19 18 18 17 17 19 20 19 19 20 20 20 20 19 19 19 19 19 19 19 18 18 18 18 18 18 18 18 18 18 18 18 18 18 18 18 18 18 18 18 18 18 18 18 18 18 18 18
19 19 18 18 17 19 19 20 19 20 20 21 20 20 19 18 19 19 19 18 18 18 18 18 18 18 18 18 18 18 18 18 18 18 18 18 18 18 18 18 18 18 18 18 18 18 18 18 18
19 18 18 17 18 19 20 20 20 20 21 21 20 20 19 19 19 19 19 19 18 18 18 18 18 18 18 18 18 18 18 18 17 17 17 17 17 17 17 17 17 17 17 17 17 18 18 18 18
19 18 18 17 19 19 19 20 20 20 21 21 20 19 19 19 20 19 19 19 18 18 18 18 18 18 18 18 18 18 17 17 17 17 17 17 17 17 17 17 17 17 17 17 17 17 17 18 18
19 18 18 18 19 19 19 20 20 20 21 20 20 19 19 19 20 19 19 19 19 18 18 18 18 18 18 17 17 17 17 17 17 17 17 17 17 17 17 17 17 17 17 17 17 17 17 17 17
18 17 18 18 19 20 19 20 21 21 20 20 20 19 19 19 19 19 19 19 19 18 18 18 18 18 17 17 17 17 17 17 16 16 16 16 16 16 16 16 16 16 16 17 17 17 17 17 17
18 17 18 19 19 19 20 20 20 20 20 20 20 18 19 19 19 19 19 19 18 18 18 18 18 18 17 17 17 17 16 16 16 16 16 16 16 16 16 16 16 16 16 16 16 16 16 17 17
19 17 18 18 19 20 20 21 21 21 21 21 21 19 19 20 19 19 19 18 18 18 18 18 18 18 17 17 17 17 16 16 16 16 16 16 16 16 16 16 16 16 16 16 16 16 16 16 17
19 17 17 18 19 20 20 20 21 21 21 20 21 21 21 20 19 19 19 18 18 18 18 18 18 18 17 17 17 17 16 16 16 16 16 15 15 15 15 15 15 15 16 16 16 16 16 16 16
18 17 18 19 19 19 20 20 21 21 20 20 20 21 20 20 20 19 19 19 19 19 18 18 18 18 17 17 17 16 16 16 16 16 15 15 15 15 15 15 15 15 15 15 15 15 16 16 16
18 18 18 19 19 19 20 20 21 20 20 20 21 21 20 20 20 19 19 19 19 19 19 18 18 17 17 17 17 16 16 16 16 15 15 15 15 15 15 15 15 15 15 15 15 15 15 15 16
18 18 19 19 19 20 20 20 20 21 22 22 22 22 21 20 20 20 20 20 19 19 19 18 18 18 17 17 16 16 16 16 15 15 15 15 15 15 15 15 15 15 15 15 15 15 15 15 15
18 18 19 19 20 20 20 20 20 21 22 22 22 21 21 21 21 20 20 20 19 19 19 18 18 18 17 17 16 16 16 15 15 15 15 15 15 15 14 14 14 14 15 15 15 15 15 15 15
18 18 18 19 19 20 20 20 20 21 22 22 21 21 21 21 21 20 20 20 19 19 19 18 18 18 17 17 16 16 16 15 15 15 15 15 15 14 14 14 14 14 14 14 14 15 15 15 15
18 18 18 19 19 19 20 20 20 22 21 21 21 21 21 21 21 21 20 20 20 19 19 18 18 17 17 17 16 16 15 15 15 15 15 14 14 14 14 14 14 14 14 14 14 14 14 15 15
18 18 18 19 19 19 20 20 20 21 21 21 21 21 21 21 21 21 20 20 20 19 19 18 18 17 17 17 16 16 15 15 15 15 14 14 14 14 14 14 14 14 14 14 14 14 14 14 15
17 17 18 19 19 19 19 19 20 21 21 20 20 21 20 21 21 21 20 20 20 19 19 19 18 17 17 16 16 15 15 15 15 15 14 14 14 14 14 13 13 13 13 14 14 14 14 14 14
17 17 18 18 19 19 19 19 19 20 20 20 20 20 20 21 21 21 20 20 20 19 19 19 18 17 17 16 16 15 15 15 15 14 14 14 14 13 13 13 13 13 13 13 13 14 14 14 14
18 18 18 19 19 19 19 19 19 19 19 19 20 20 20 21 21 21 20 20 20 19 19 19 18 17 17 16 16 15 15 15 14 14 14 14 13 13 13 13 13 13 13 13 13 13 13 14 14
18 18 18 19 19 19 19 19 19 19 19 20 20 20 21 21 21 21 21 20 20 20 19 19 18 17 17 16 16 15 15 15 14 14 14 14 13 13 13 13 13 13 13 13 13 13 13 13 14
18 18 18 19 19 19 19 19 19 19 19 20 20 20 21 21 21 21 21 21 20 20 19 19 18 18 17 16 16 15 15 15 14 14 14 14 13 13 13 13 13 13 13 13 13 13 13 13 13
18 19 19 19 18 17 19 18 19 18 18 19 19 20 21 21 21 21 21 21 20 20 19 19 18 17 17 16 16 15 15 15 14 14 14 14 13 13 13 13 13 13 13 13 13 13 13 13 13
18 19 18 18 18 17 17 18 18 18 19 19 19 20 21 21 21 21 21 21 20 20 19 19 18 17 17 16 16 15 15 15 14 14 14 13 13 13 13 13 13 13 13 13 13 13 13 13 13
19 18 17 16 16 17 18 18 18 18 19 19 19 20 21 22 21 21 21 20 20 20 19 18 18 17 17 16 16 15 15 15 14 14 14 13 13 13 13 13 13 13 13 13 12 12 13 13 13
18 17 17 17 16 17 17 18 18 19 19 19 19 21 22 22 21 21 21 21 20 20 19 19 18 18 17 16 16 16 15 15 14 14 14 13 13 13 13 13 13 13 13 13 12 12 12 12 12
18 17 17 18 18 17 17 18 18 19 19 20 21 21 22 22 22 22 21 21 20 20 19 19 18 18 17 17 16 16 15 15 14 14 14 13 13 13 13 13 13 13 13 13 12 12 12 12 12
18 17 17 16 17 17 17 18 19 20 19 19 20 21 21 22 22 22 21 21 21 20 19 19 18 18 17 17 16 16 15 15 14 14 14 14 13 13 13 13 13 13 13 13 13 13 13 12 12
18 16 15 16 17 17 19 18 18 20 20 19 18 19 21 21 21 21 21 21 21 20 19 19 18 18 17 17 16 16 15 15 14 14 14 14 13 13 13 13 13 13 13 13 13 13 13 13 12
19 18 15 14 16 16 18 18 18 19 19 18 18 20 20 21 21 21 21 21 21 20 19 19 18 18 17 17 16 16 15 15 14 14 14 14 14 13 13 13 13 13 13 13 13 13 13 13 13
20 19 16 17 16 15 16 17 18 17 17 18 19 20 20 21 21 21 21 21 20 20 20 19 18 18 17 17 16 16 15 15 15 14 14 14 14 13 13 13 13 13 13 13 13 13 13 13 13
Wind_Speed
3 6 3 3 3 2 2 2 2 1 0 0 2 5 6 4 2 2 1 5 6 6 7 9 9 9 8 7 6 6 5 5 5 4 4 3 2 2 2 1 1 2 2 2 2 2 2 1 1
5 4 3 3 3 1 3 2 2 2 2 3 3 4 5 3 2 4 3 5 7 7 7 8 9 9 8 7 6 6 5 4 4 3 2 1 1 0 0 1 2 2 3 3 3 3 3 3 2
5 3 3 3 1 2 3 2 3 1 2 2 3 4 3 3 4 4 4 8 8 6 7 8 9 8 7 6 6 5 4 3 3 2 1 1 1 1 1 2 3 3 4 4 4 4 4 4 3
3 3 3 2 2 4 3 2 2 2 1 2 4 4 2 1 5 5 8 9 8 6 6 7 8 8 7 6 5 4 3 2 2 1 1 1 2 2 3 3 4 4 5 5 5 5 5 5 5
3 3 2 1 4 3 3 2 3 3 2 3 4 4 2 2 6 9 9 8 8 6 5 6 8 7 6 5 4 4 3 2 1 1 1 2 2 3 4 4 4 5 5 6 6 6 6 6 5
3 3 2 2 4 4 3 2 3 3 3 4 5 5 1 2 7 9 9 7 7 6 5 5 7 7 6 5 4 3 2 1 1 1 2 2 3 4 4 5 5 5 6 6 7 7 7 7 6
4 3 3 3 3 4 2 2 3 3 4 4 5 5 2 3 6 8 7 6 5 4 4 3 3 4 4 4 3 2 1 0 1 2 2 3 4 4 5 5 6 6 6 6 6 7 7 7 6
4 4 1 2 3 4 2 1 1 3 3 4 5 7 5 6 7 7 6 5 4 3 3 3 2 2 2 1 2 1 1 1 2 3 3 4 5 5 6 5 5 6 6 6 6 6 6 6 6
3 3 2 3 4 3 2 1 2 1 5 3 2 5 5 10 10 8 5 3 3 4 3 3 2 2 2 2 1 0 1 3 4 4 5 5 5 5 6 6 5 5 5 5 5 5 5 5 4
4 3 5 3 3 2 1 0 1 3 3 2 2 3 8 11 11 10 8 7 6 6 4 4 4 2 2 1 0 1 2 3 3 4 5 5 5 5 5 6 6 6 6 6 5 5 4 3 3
5 5 3 2 1 1 1 1 1 5 3 5 6 9 11 10 10 10 9 8 8 6 5 4 4 3 2 1 1 1 1 2 3 3 4 3 4 5 5 5 6 7 6 6 6 5 4 3 1
4 2 2 1 0 0 1 0 0 4 6 5 8 12 12 12 12 12 11 9 6 5 5 4 4 3 2 2 1 1 0 1 1 2 3 2 2 2 3 2 4 4 4 4 3 3 3 3 2
3 1 1 2 2 2 1 2 2 5 4 4 7 11 12 13 11 9 8 7 6 6 6 4 4 4 3 2 1 1 0 1 1 2 2 2 1 1 2 2 3 3 3 2 2 2 2 2 2
2 1 2 3 2 2 1 3 2 5 4 7 10 11 11 11 11 8 7 7 7 7 6 4 5 5 4 3 2 1 1 1 2 2 2 2 2 1 1 2 2 2 3 2 1 1 2 2 2
3 2 3 2 1 1 1 3 4 4 5 8 9 10 9 8 8 9 9 9 8 6 6 5 5 5 5 4 3 2 2 2 1 1 2 2 2 1 1 1 2 3 3 3 2 2 1 1 1
3 2 1 2 1 1 3 5 5 2 6 8 8 8 8 7 7 8 8 8 7 7 6 6 5 5 5 3 3 2 2 2 1 1 2 2 2 1 1 1 2 3 3 2 1 1 1 2 2
3 2 2 3 2 2 3 5 5 2 6 7 7 7 8 7 7 7 8 9 8 8 7 6 5 6 5 4 2 2 2 2 1 1 1 2 2 2 1 1 2 3 2 2 2 1 1 1 2
4 3 2 3 2 3 3 6 6 4 6 8 7 7 7 9 10 7 8 8 7 7 6 6 5 5 5 3 3 2 2 2 2 1 2 2 2 2 1 1 2 2 1 2 2 1 1 1 1
6 4 2 3 2 2 5 7 8 5 5 7 7 7 8 10 7 5 7 7 7 6 6 6 6 5 5 3 2 1 0 1 1 1 2 2 3 3 1 1 2 2 1 2 1 1 1 2 1
5 4 2 2 1 2 3 6 6 5 6 7 8 9 10 7 5 5 6 7 7 7 7 7 7 6 5 3 2 2 1 1 1 2 2 2 3 3 1 1 1 1 1 2 2 1 0 1 2
3 4 3 1 1 2 2 6 4 3 2 3 4 6 7 10 10 8 8 8 7 8 8 8 7 6 5 4 3 3 2 2 2 2 2 3 3 3 2 1 1 2 1 1 1 0 1 0 1
2 3 3 2 3 2 2 2 5 3 4 3 3 4 7 8 8 8 8 8 9 8 7 7 7 6 5 5 4 4 3 2 3 2 2 3 3 3 3 2 2 2 1 2 2 1 1 1 0
3 2 3 3 3 2 3 1 7 3 3 5 5 6 7 8 9 10 10 10 8 7 7 6 6 5 5 5 5 4 3 2 1 1 2 3 3 3 3 2 2 2 2 2 1 0 1 1 1
4 5 5 5 4 2 2 1 5 4 5 5 4 5 6 7 7 7 6 5 5 5 6 6 7 5 5 5 5 5 5 3 2 2 2 3 3 3 3 2 2 2 2 2 2 1 1 1 1
4 5 4 5 4 3 3 1 7 6 6 5 6 6 5 6 7 7 7 7 7 7 7 7 7 6 5 5 5 5 5 5 4 3 3 2 2 3 4 3 2 2 2 2 1 1 1 2 2
4 6 6 4 3 3 3 3 7 6 5 3 2 3 3 5 6 7 8 8 8 9 8 8 8 7 6 6 6 5 4 4 3 3 3 3 3 4 4 3 2 2 2 1 1 1 1 2 2
6 3 5 6 3 2 4 6 7 4 5 5 3 1 3 5 6 7 6 7 8 9 10 10 9 7 6 6 5 5 5 5 4 3 3 3 3 3 3 3 2 2 2 1 0 0 1 1 2
5 8 6 5 4 1 5 4 4 6 5 4 3 2 4 4 4 5 5 6 7 7 7 7 8 8 7 6 6 5 5 5 4 3 3 4 4 3 2 2 2 2 1 1 0 0 0 1 1
4 5 6 5 5 5 0 5 4 5 4 3 4 4 4 3 4 4 4 5 5 5 6 7 7 6 6 7 6 5 5 5 4 4 4 4 3 3 2 2 2 2 1 1 0 1 0 1 1
4 6 6 5 2 4 4 5 5 4 4 2 4 4 3 3 2 2 2 2 3 5 5 7 7 7 7 7 6 6 5 4 5 5 5 4 3 3 3 2 2 2 2 1 1 1 1 1 1
Wind_Direction
144 109 82 57 51 46 275 247 200 252 205 16 77 100 104 96 111 145 137 139 137 137 146 149 144 139 133 128 127 126 121 117 114 112 113 117 124 131 142 155 184 199 191 188 189 195 200 208 209
124 105 64 61 76 2 283 238 200 217 171 148 92 89 86 81 88 114 129 148 138 137 141 148 145 141 136 131 127 122 118 114 110 107 100 101 98 85 169 237 249 254 253 247 241 241 243 243 243
121 80 90 83 130 208 260 238 207 223 160 149 82 63 98 127 136 154 168 146 134 136 144 152 147 143 139 135 132 127 119 114 108 99 77 45 344 307 290 271 269 272 273 263 259 260 260 261 262
108 63 64 79 246 237 242 252 179 131 122 95 110 85 67 98 155 157 146 143 138 141 148 154 151 148 144 141 137 125 115 107 97 80 22 339 323 317 302 289 283 280 277 271 267 266 267 265 269
69 85 68 312 270 260 251 231 173 162 140 117 124 118 72 11 122 134 141 146 147 150 153 159 160 157 154 150 140 128 118 100 70 51 19 350 325 312 303 298 296 294 288 277 276 271 269 267 266
74 79 107 257 273 285 267 199 160 152 132 135 133 124 117 113 134 146 149 150 154 155 156 165 171 168 165 160 155 146 132 99 41 17 356 338 329 320 312 299 300 298 294 285 278 272 268 269 267
126 124 190 231 276 290 269 153 153 147 145 164 143 123 138 175 169 149 144 144 146 148 145 156 168 171 173 174 171 166 163 104 12 355 347 338 329 328 327 317 310 303 298 292 286 278 270 268 266
139 126 201 241 245 273 312 88 120 136 148 133 132 146 183 196 159 135 126 125 134 143 151 155 157 158 177 193 193 185 185 16 4 359 358 355 355 352 341 332 321 311 302 299 297 290 282 277 274
115 96 219 231 220 261 335 49 51 83 117 125 154 170 180 143 135 128 126 128 154 174 178 173 174 178 184 194 212 182 343 8 15 10 10 12 9 2 353 342 341 334 322 314 313 304 296 290 291
125 167 221 228 212 265 317 153 155 104 112 120 89 101 123 136 147 155 165 176 185 196 199 193 193 190 186 192 146 3 5 17 18 16 15 16 11 8 6 360 359 357 354 345 337 330 333 330 318
163 194 230 266 251 267 324 317 145 134 184 199 182 158 146 152 161 172 182 188 196 197 197 194 189 178 167 151 107 40 15 18 17 20 21 25 22 18 17 12 1 1 4 5 355 354 353 351 326
169 224 226 287 304 278 250 282 160 189 221 210 180 160 159 167 176 185 191 196 190 184 194 192 177 167 161 142 104 82 40 22 19 20 31 48 33 16 9 9 358 0 1 0 359 347 342 344 339
187 223 277 287 304 269 264 241 233 246 236 164 153 156 171 178 186 193 193 189 178 184 190 187 172 166 154 135 126 101 86 69 38 25 38 67 64 16 358 352 359 355 359 356 343 344 343 340 332
178 188 293 301 318 332 275 284 225 250 172 152 162 176 186 188 188 182 184 186 187 189 189 177 167 162 149 149 148 144 121 97 67 44 43 61 81 56 5 351 345 342 341 335 334 333 335 322 313
103 64 341 308 299 299 91 307 246 236 159 168 180 187 194 201 195 193 194 190 187 185 180 175 171 156 153 156 155 136 124 104 84 62 55 59 71 73 15 345 335 326 333 339 350 350 348 334 339
97 95 311 293 230 218 139 266 275 205 171 189 196 196 201 213 214 206 194 187 180 173 175 182 171 154 154 151 142 117 111 98 77 59 44 32 30 41 29 344 324 329 343 346 346 356 350 342 339
66 136 207 283 220 184 171 244 277 187 187 208 211 206 204 215 226 217 199 187 180 177 173 170 158 152 149 137 112 90 86 74 56 44 22 6 4 9 32 339 321 341 357 353 342 22 5 332 324
173 173 201 241 248 181 219 259 275 238 207 219 221 217 209 215 224 212 195 183 174 170 168 162 151 145 129 110 87 63 52 34 26 19 353 356 351 354 8 342 330 347 7 356 353 2 5 321 303
151 155 205 249 254 190 238 265 273 253 217 221 223 217 216 223 225 195 184 172 160 162 167 166 158 156 142 131 131 124 134 328 337 332 340 342 339 345 356 334 337 352 358 331 330 349 13 360 348
136 148 216 292 271 197 269 281 279 248 225 218 221 219 216 210 192 183 177 170 171 174 175 172 172 167 170 160 150 154 150 216 266 307 324 333 338 336 333 321 317 325 337 350 359 30 52 360 23
153 173 196 192 19 45 5 325 303 287 271 240 220 215 209 200 193 187 181 182 177 183 183 183 180 174 174 150 114 86 60 32 7 333 313 317 322 321 316 304 302 310 290 295 303 290 133 99 356
201 213 176 143 96 355 47 308 300 299 301 264 242 217 208 203 193 189 186 188 192 193 183 179 175 171 168 156 156 155 161 191 231 248 278 305 315 315 314 312 313 303 285 275 278 212 170 142 45
182 97 114 109 114 44 24 105 294 329 293 269 249 230 217 205 196 195 195 195 191 182 176 175 168 172 171 174 173 163 171 198 234 274 294 308 315 315 314 306 307 299 283 272 266 227 175 162 163
132 76 62 54 71 38 309 139 290 268 250 268 254 234 218 205 199 199 195 181 178 169 168 167 171 183 183 182 180 178 183 191 213 263 284 302 309 310 315 306 301 293 284 276 254 216 189 185 170
91 88 46 25 26 276 292 195 258 266 258 243 243 235 216 195 188 190 190 188 188 184 182 178 179 191 190 186 191 194 193 193 208 227 240 267 292 295 300 307 297 293 284 273 249 213 212 191 177
150 133 146 160 192 288 347 263 267 281 294 270 230 211 196 196 197 201 200 197 195 195 190 187 191 197 193 195 203 201 198 199 216 225 227 242 253 267 285 296 292 293 299 302 255 227 230 200 198
132 142 153 126 122 47 321 310 316 350 12 24 35 70 228 220 212 211 205 199 197 197 197 194 194 200 201 203 203 205 209 211 222 231 234 247 258 268 282 291 289 297 303 313 309 265 252 204 206
124 138 101 103 120 47 332 326 296 315 330 349 351 292 270 257 243 228 214 208 206 206 204 195 195 201 203 200 203 210 216 218 220 220 240 253 264 271 285 289 285 292 294 303 6 283 266 154 207
114 98 101 99 129 136 128 291 250 261 274 280 287 284 270 255 244 237 229 216 204 197 194 196 200 202 206 206 206 211 217 216 216 224 239 246 255 263 260 262 265 277 288 289 185 237 208 182 240
153 152 145 137 159 141 148 267 291 286 283 273 292 304 302 276 257 244 229 205 200 203 203 202 202 206 213 208 205 214 218 215 221 234 242 236 242 252 246 244 246 259 269 266 220 230 216 208 239
Height
1500 1501 1502 1503 1505 1510 1510 1504 1501 1500 1499 1499 1498 1499 1500 1503 1507 1512 1508 1507 1509 1510 1512 1513 1515 1516 1517 1518 1519 1520 1520 1521 1521 1522 1522 1522 1523 1523 1523 1524 1524 1524 1524 1524 1524 1524 1524 1524 1524
1500 1501 1503 1504 1509 1516 1510 1501 1500 1499 1498 1499 1499 1500 1501 1503 1504 1506 1506 1508 1510 1511 1513 1514 1516 1517 1518 1518 1519 1520 1520 1520 1521 1521 1521 1522 1522 1522 1522 1523 1523 1523 1523 1524 1524 1524 1524 1524 1524
1500 1502 1504 1505 1509 1513 1507 1498 1498 1497 1498 1499 1500 1501 1502 1504 1505 1506 1507 1509 1510 1512 1514 1515 1516 1517 1518 1519 1519 1520 1520 1520 1520 1520 1520 1520 1521 1521 1521 1522 1522 1522 1522 1522 1523 1523 1523 1523 1523
1501 1502 1504 1508 1508 1504 1500 1497 1496 1497 1498 1499 1500 1502 1503 1505 1506 1507 1508 1510 1511 1513 1514 1516 1517 1518 1518 1519 1519 1519 1519 1519 1519 1519 1519 1519 1520 1520 1520 1520 1520 1521 1521 1521 1521 1521 1521 1522 1522
1501 1502 1506 1509 1505 1499 1496 1495 1496 1497 1498 1499 1500 1502 1504 1506 1506 1508 1509 1510 1512 1514 1515 1516 1518 1518 1519 1519 1519 1519 1519 1519 1519 1519 1519 1519 1518 1518 1519 1519 1519 1519 1519 1519 1519 1519 1520 1520 1520
1501 1502 1511 1512 1505 1497 1495 1494 1495 1496 1498 1499 1500 1502 1505 1506 1507 1509 1510 1512 1513 1515 1516 1517 1518 1519 1519 1519 1519 1519 1519 1519 1519 1519 1518 1518 1518 1517 1517 1517 1517 1517 1517 1517 1517 1517 1518 1518 1518
1501 1504 1508 1507 1505 1500 1495 1494 1495 1496 1497 1499 1500 1502 1504 1506 1508 1509 1511 1513 1514 1516 1517 1518 1518 1519 1519 1519 1519 1519 1519 1519 1519 1518 1518 1518 1517 1517 1516 1516 1516 1516 1515 1515 1515 1515 1515 1516 1516
1499 1503 1506 1506 1505 1500 1495 1494 1495 1496 1498 1499 1500 1501 1503 1505 1508 1510 1511 1513 1514 1516 1517 1518 1519 1519 1519 1520 1520 1519 1519 1519 1518 1518 1517 1517 1516 1516 1515 1515 1514 1514 1514 1514 1513 1513 1513 1514 1514
1498 1506 1509 1504 1502 1498 1495 1494 1495 1496 1497 1499 1500 1501 1502 1504 1507 1509 1511 1513 1514 1516 1517 1518 1519 1519 1519 1519 1519 1519 1519 1518 1518 1517 1517 1516 1516 1515 1515 1514 1514 1513 1512 1512 1512 1511 1511 1512 1512
1498 1505 1503 1498 1496 1496 1495 1495 1496 1496 1498 1499 1499 1500 1502 1504 1506 1509 1510 1512 1514 1515 1517 1518 1519 1519 1519 1519 1519 1519 1518 1518 1518 1517 1516 1516 1515 1514 1514 1513 1513 1512 1511 1511 1510 1510 1510 1510 1510
1495 1499 1497 1495 1495 1495 1495 1495 1495 1496 1498 1497 1497 1499 1502 1504 1506 1508 1510 1512 1513 1515 1516 1517 1518 1519 1519 1519 1519 1518 1518 1517 1517 1516 1516 1515 1514 1513 1513 1512 1512 1511 1510 1510 1509 1509 1509 1509 1509
1495 1495 1495 1494 1495 1495 1495 1495 1496 1495 1495 1495 1496 1498 1501 1503 1505 1507 1509 1511 1513 1515 1516 1517 1518 1518 1518 1518 1518 1518 1517 1517 1516 1516 1515 1514 1513 1512 1512 1511 1510 1510 1509 1508 1508 1507 1507 1507 1507
1494 1494 1494 1494 1494 1494 1494 1495 1495 1494 1494 1495 1496 1499 1501 1503 1505 1507 1509 1511 1513 1514 1515 1517 1517 1518 1518 1518 1518 1517 1517 1516 1516 1515 1514 1513 1512 1511 1511 1510 1509 1508 1508 1507 1506 1506 1506 1506 1506
1493 1494 1494 1494 1493 1493 1494 1494 1495 1492 1493 1494 1496 1498 1500 1502 1504 1506 1508 1510 1512 1514 1515 1516 1517 1517 1517 1517 1517 1517 1516 1516 1515 1514 1514 1513 1512 1510 1509 1509 1508 1507 1506 1506 1505 1505 1504 1504 1504
1492 1495 1495 1493 1493 1493 1494 1495 1492 1491 1492 1494 1495 1497 1499 1502 1504 1505 1507 1509 1511 1513 1514 1515 1516 1517 1517 1517 1516 1516 1516 1515 1515 1514 1513 1512 1511 1509 1508 1507 1506 1505 1505 1504 1503 1503 1503 1503 1503
1493 1498 1501 1495 1493 1493 1497 1500 1490 1490 1492 1493 1494 1496 1498 1501 1503 1505 1507 1509 1511 1512 1514 1515 1515 1516 1516 1516 1516 1515 1515 1515 1514 1513 1512 1511 1510 1508 1507 1506 1505 1504 1503 1502 1502 1501 1501 1501 1501
1499 1504 1502 1497 1493 1493 1496 1497 1490 1490 1491 1492 1493 1495 1497 1499 1501 1503 1505 1508 1510 1511 1513 1514 1515 1515 1515 1515 1515 1515 1515 1514 1513 1512 1511 1510 1509 1507 1506 1505 1504 1503 1502 1501 1500 1500 1499 1499 1499
1504 1503 1501 1499 1493 1493 1495 1494 1489 1489 1491 1491 1492 1493 1495 1497 1498 1501 1504 1506 1508 1510 1512 1513 1514 1514 1514 1514 1514 1514 1514 1513 1513 1512 1510 1509 1508 1506 1505 1504 1503 1502 1501 1500 1499 1498 1498 1498 1498
1494 1498 1500 1497 1492 1493 1494 1493 1489 1488 1489 1489 1490 1491 1492 1494 1497 1500 1502 1505 1507 1509 1510 1512 1512 1513 1513 1513 1513 1513 1513 1512 1512 1511 1510 1508 1507 1506 1504 1503 1502 1501 1500 1499 1498 1497 1497 1497 1497
1493 1498 1500 1496 1491 1493 1495 1493 1488 1486 1486 1486 1487 1488 1489 1492 1495 1497 1500 1502 1505 1507 1509 1510 1511 1512 1512 1513 1513 1512 1512 1511 1511 1510 1509 1508 1506 1505 1504 1502 1501 1500 1499 1498 1497 1496 1496 1496 1496
1495 1497 1497 1497 1494 1494 1496 1497 1490 1486 1485 1485 1485 1486 1487 1490 1492 1495 1498 1500 1503 1505 1507 1509 1510 1511 1511 1512 1512 1511 1511 1511 1510 1509 1508 1507 1506 1505 1503 1502 1501 1499 1498 1497 1496 1496 1495 1495 1495
1497 1491 1492 1495 1501 1506 1502 1512 1495 1490 1487 1484 1484 1484 1486 1488 1491 1493 1496 1499 1501 1504 1506 1508 1509 1510 1510 1511 1510 1510 1510 1510 1509 1508 1507 1506 1505 1504 1503 1501 1500 1498 1497 1496 1495 1495 1494 1494 1494
1491 1489 1492 1495 1500 1507 1506 1511 1503 1492 1489 1485 1483 1483 1485 1487 1489 1492 1494 1497 1500 1502 1504 1506 1507 1508 1509 1509 1509 1509 1509 1509 1508 1508 1507 1506 1505 1503 1502 1500 1499 1497 1496 1495 1495 1494 1494 1494 1494
1488 1492 1497 1502 1507 1517 1510 1513 1508 1496 1488 1484 1481 1482 1483 1486 1488 1491 1494 1497 1499 1501 1503 1504 1506 1507 1507 1508 1508 1508 1508 1508 1507 1507 1506 1505 1504 1503 1501 1500 1498 1497 1495 1494 1494 1493 1493 1493 1493
1491 1502 1516 1518 1524 1521 1509 1510 1505 1487 1483 1482 1481 1481 1483 1485 1487 1490 1492 1494 1497 1499 1501 1502 1504 1505 1506 1507 1507 1507 1507 1506 1506 1506 1505 1504 1503 1502 1501 1499 1497 1496 1495 1494 1493 1492 1492 1492 1492
1493 1499 1516 1524 1525 1521 1511 1510 1497 1483 1480 1479 1479 1481 1482 1484 1486 1488 1490 1492 1494 1497 1499 1501 1502 1503 1505 1505 1506 1506 1505 1505 1505 1505 1504 1503 1503 1501 1500 1498 1497 1496 1494 1493 1493 1492 1492 1492 1492
1493 1499 1500 1514 1517 1523 1516 1505 1490 1481 1481 1480 1480 1481 1482 1483 1485 1487 1489 1491 1493 1495 1497 1499 1500 1502 1503 1504 1504 1504 1504 1504 1504 1503 1503 1502 1502 1501 1499 1498 1497 1495 1494 1493 1492 1492 1491 1491 1491
1486 1494 1506 1514 1524 1527 1516 1511 1507 1490 1485 1483 1483 1482 1482 1483 1484 1486 1488 1489 1491 1493 1495 1497 1499 1500 1501 1502 1502 1503 1503 1502 1502 1502 1502 1501 1501 1500 1499 1498 1496 1495 1494 1493 1492 1491 1491 1491 1490
1491 1496 1505 1514 1516 1527 1525 1518 1495 1491 1487 1485 1483 1482 1482 1482 1483 1485 1487 1488 1490 1491 1493 1495 1496 1498 1499 1500 1500 1501 1501 1501 1501 1501 1500 1500 1500 1499 1498 1497 1496 1495 1494 1493 1492 1491 1490 1490 1490
1482 1489 1499 1509 1516 1520 1524 1518 1489 1488 1485 1484 1483 1482 1482 1483 1483 1484 1486 1487 1488 1489 1491 1492 1494 1496 1497 1498 1498 1499 1499 1499 1499 1499 1499 1498 1498 1498 1497 1496 1495 1494 1493 1492 1491 1491 1490 1489 1489